Location: Diebersbach
(48.5163°N, 8.0558°E)
Time: 20:22:14
(UTC+00:00)

COSMOS 1375 DEB - Visible Passes

Search period start: 16 January 2022 00:00
Search period end: 26 January 2022 00:00
Orbit: 876 x 919 km, 65.8° (Epoch: 16 January)

Date Brightness Start Highest point End Pass type
(mag) Time Alt. Az. Time Alt. Az. Time Alt. Az.
16 Jan ? 16:48:03 10° W 16:53:09 27° NNW 16:58:15 10° NNE visible
16 Jan ? 18:37:49 10° NW 18:41:14 15° N 18:42:41 14° N visible
16 Jan ? 20:25:19 10° NNW 20:25:40 11° NNW 20:25:40 11° NNW visible
17 Jan ? 16:50:19 10° W 16:55:09 24° NNW 16:59:58 10° NNE visible
17 Jan ? 18:40:01 10° NW 18:43:21 15° N 18:44:27 14° N visible
17 Jan ? 20:27:04 10° NNW 20:27:26 11° NNW 20:27:26 11° NNW visible
18 Jan ? 16:52:37 10° WNW 16:57:10 21° NNW 17:01:42 10° NNE visible
18 Jan ? 18:42:08 10° NNW 18:45:29 15° N 18:46:13 15° N visible
18 Jan ? 20:28:48 10° NNW 20:29:12 11° NNW 20:29:12 11° NNW visible
19 Jan ? 16:54:58 10° WNW 16:59:13 19° NNW 17:03:28 10° NNE visible
19 Jan ? 18:44:10 10° NNW 18:47:36 15° N 18:47:59 15° N visible
19 Jan ? 20:30:31 10° NNW 20:30:58 12° NNW 20:30:58 12° NNW visible
20 Jan ? 16:57:20 10° WNW 17:01:17 18° NNW 17:05:14 10° NNE visible
20 Jan ? 18:46:08 10° NNW 18:49:44 16° N 18:49:46 16° N visible
20 Jan ? 20:32:14 10° NNW 20:32:45 12° NNW 20:32:45 12° NNW visible
21 Jan ? 16:59:40 10° NW 17:03:23 16° NNW 17:07:06 10° NNE visible
21 Jan ? 18:48:00 10° NNW 18:51:33 17° N 18:51:33 17° N visible
21 Jan ? 20:33:56 10° NNW 20:34:32 13° NNW 20:34:32 13° NNW visible
22 Jan ? 17:01:59 10° NW 17:05:30 16° N 17:09:00 10° NNE visible
22 Jan ? 18:49:49 10° NNW 18:53:21 18° NNE 18:53:21 18° NNE visible
22 Jan ? 20:35:38 10° NNW 20:36:20 13° NNW 20:36:20 13° NNW visible
23 Jan ? 17:04:14 10° NW 17:07:36 15° N 17:10:59 10° NNE visible
23 Jan ? 18:51:35 10° NNW 18:55:10 20° NNE 18:55:10 20° NNE visible
23 Jan ? 20:37:20 10° NNW 20:38:09 14° NNW 20:38:09 14° NNW visible
24 Jan ? 17:06:25 10° NW 17:09:44 15° N 17:13:02 10° NNE visible
24 Jan ? 18:53:20 10° NNW 18:57:00 22° NNE 18:57:00 22° NNE visible
24 Jan ? 20:39:03 10° NW 20:39:59 15° NNW 20:39:59 15° NNW visible
25 Jan ? 17:08:31 10° NNW 17:11:51 15° N 17:15:12 10° NE visible
25 Jan ? 18:55:03 10° NNW 18:58:52 24° NNE 18:58:52 24° NNE visible
25 Jan ? 20:40:47 10° NW 20:41:51 16° NW 20:41:51 16° NW visible
